Theta_e
313 313 313 313 314 314 315 315 313 320 314 312 313 317 320 321 318 320 320 320 320 318 318 321 320 320 319 319 319 315 315 312 313 316 314 315 315 317 313 309 314 309 309 312
313 314 313 313 314 314 318 319 325 323 315 308 309 314 319 319 318 318 320 320 320 319 320 321 320 319 318 316 317 317 315 313 312 315 315 314 316 316 313 310 308 312 307 310
314 314 313 313 314 314 319 321 316 322 321 314 313 319 321 321 320 320 320 319 319 319 320 319 320 320 318 315 314 317 316 314 312 313 314 313 313 313 314 312 310 312 309 312
314 315 314 313 313 315 321 322 316 318 314 317 318 318 319 320 320 320 319 319 320 319 320 321 320 320 318 316 316 316 313 314 316 313 311 313 312 312 312 313 312 312 311 311
314 316 315 314 313 315 322 324 319 314 312 316 318 317 320 319 320 319 320 318 319 319 318 318 319 318 316 314 315 315 313 312 312 312 312 311 312 310 309 309 310 312 312 314
314 317 317 316 313 315 320 322 324 316 313 312 313 316 318 319 319 320 319 318 315 314 317 317 317 316 316 315 315 315 312 308 306 305 308 306 305 308 312 313 312 311 313 311
315 318 318 315 313 314 318 323 324 320 312 310 313 318 319 319 318 319 319 318 315 315 315 316 316 315 314 315 313 314 309 306 300 302 302 302 307 309 311 312 313 312 311 309
315 317 318 315 313 314 318 323 325 320 306 315 318 319 318 319 319 318 318 318 317 314 312 305 307 305 306 308 311 311 309 303 304 302 305 305 309 312 313 312 311 311 310 308
315 316 318 317 314 315 321 322 323 319 319 317 320 318 318 315 314 314 319 316 315 317 302 302 305 306 306 312 314 310 307 301 302 304 300 301 305 311 312 311 311 312 310 308
314 315 317 318 318 320 320 323 321 320 321 321 320 317 317 318 315 312 318 319 318 314 299 300 304 309 308 312 310 307 305 301 303 295 299 304 305 311 312 312 307 312 312 311
313 315 316 316 318 319 316 321 320 320 321 321 322 321 320 319 318 312 317 313 315 305 304 302 304 299 306 308 310 309 308 306 306 300 301 309 307 310 310 309 310 313 313 312
312 314 315 316 315 315 316 318 320 319 320 321 321 321 321 320 319 319 317 315 314 313 304 301 304 301 307 304 308 308 308 306 307 308 308 308 310 311 313 312 312 313 313 312
311 313 314 315 315 315 315 318 318 317 320 319 320 320 321 322 320 318 317 317 316 315 313 308 302 303 302 306 306 310 309 308 305 308 309 309 311 311 312 312 313 313 312 311
309 310 312 313 314 314 314 315 315 314 315 315 318 317 319 321 322 320 319 319 318 316 314 308 301 299 306 302 304 306 308 309 309 306 308 313 313 312 313 313 313 312 310 308
309 309 310 311 312 314 314 314 313 313 312 312 318 317 316 317 319 321 320 319 319 317 314 304 305 305 304 303 303 305 310 309 307 308 311 313 312 313 314 313 311 309 307 305
309 309 310 310 311 312 313 312 315 315 314 314 307 315 315 316 317 318 320 319 319 318 317 311 311 312 310 306 310 311 313 313 313 313 314 313 313 313 312 311 309 307 306 302
309 309 309 310 311 311 310 311 315 315 314 312 310 309 314 316 319 318 318 318 318 318 316 313 312 313 312 304 307 311 312 312 312 312 312 312 313 312 310 309 307 304 301 299
309 309 309 310 311 312 313 315 315 315 312 311 302 301 311 315 316 316 316 317 317 314 312 311 310 309 306 309 309 312 312 312 312 312 312 312 312 310 308 306 300 299 298 297
310 310 310 311 312 313 313 313 314 315 312 310 304 303 305 312 311 311 312 312 306 308 306 308 308 303 308 309 310 311 311 311 311 311 310 311 309 303 301 301 299 298 296 296
311 311 310 310 311 312 312 312 312 312 312 312 303 305 304 308 307 306 306 307 303 303 303 307 304 306 307 306 307 307 308 310 311 309 304 302 301 299 297 299 297 296 297 295
310 310 309 311 312 311 311 309 306 307 308 308 305 306 306 306 305 302 305 301 302 306 300 306 302 305 303 301 303 304 304 308 307 305 300 298 298 299 298 297 298 296 292 291
310 310 310 311 311 310 305 304 304 304 305 305 306 307 307 307 307 303 304 304 302 306 303 305 306 301 300 299 300 300 300 301 300 300 299 300 298 296 295 292 292 291 290 290
311 311 310 307 305 307 309 309 305 304 302 303 304 303 305 306 307 303 302 306 305 303 305 306 303 299 299 301 301 300 300 300 300 297 294 293 292 293 292 291 290 290 290 290
307 305 303 303 302 301 301 301 301 300 301 302 303 301 302 302 302 300 305 302 301 306 302 297 301 300 299 296 295 294 294 294 293 293 293 292 291 291 290 290 290 291 291 291
302 301 301 299 298 297 298 299 300 300 300 301 301 301 301 300 301 300 299 300 300 300 299 300 297 298 297 296 297 294 294 293 293 292 291 291 290 290 290 290 290 291 291 290
298 298 298 297 298 298 298 299 299 300 300 300 301 300 300 299 300 300 301 301 298 294 297 297 297 299 298 299 298 294 294 294 293 291 291 290 291 291 290 290 290 291 291 290
298 298 299 298 299 298 298 299 299 299 300 299 299 294 297 298 298 299 299 298 298 297 298 299 299 298 298 297 294 295 295 293 292 291 290 291 291 291 291 291 291 291 291 291
Wind_Speed
23 24 26 29 30 29 25 16 3 16 16 5 2 3 5 3 2 6 4 4 3 6 4 4 3 4 1 4 1 2 2 5 3 1 4 3 2 2 4 4 2 1 3 5
23 24 26 30 32 31 25 13 5 14 13 4 1 3 3 1 2 3 2 2 2 2 5 6 2 3 1 3 3 4 2 2 3 6 6 5 2 3 5 5 3 4 4 5
23 23 26 32 33 32 21 10 3 3 5 4 7 3 2 0 3 3 3 3 5 5 5 6 4 3 2 2 5 5 3 3 5 6 4 3 3 2 3 5 3 3 6 3
22 22 27 32 35 34 17 7 4 8 4 2 4 5 2 4 2 2 3 3 3 5 4 3 4 2 2 4 2 3 4 4 2 3 4 1 2 4 6 6 5 5 5 7
20 22 28 32 36 34 16 8 5 6 7 17 6 3 6 7 2 2 0 5 3 1 6 6 7 6 3 3 3 3 4 1 2 1 5 5 4 6 6 6 4 6 4 4
18 21 27 31 36 34 14 6 4 7 1 5 6 5 6 8 7 4 1 9 5 5 2 6 10 5 9 8 6 3 3 4 3 3 4 5 6 8 9 5 4 6 6 7
18 21 25 29 34 36 16 7 6 5 1 3 7 7 5 6 4 7 4 8 6 13 29 27 24 26 22 20 13 5 5 4 3 2 3 2 6 4 5 4 2 3 3 9
19 21 24 27 31 34 16 11 7 5 2 2 3 8 7 15 15 5 4 2 7 25 6 5 5 5 6 5 7 7 3 5 3 3 3 5 4 4 6 6 7 6 8 8
20 21 24 26 27 28 16 9 6 3 13 2 7 7 12 5 4 4 4 15 26 5 5 4 4 4 4 1 2 6 6 6 4 3 4 6 6 3 7 4 5 17 16 15
19 19 22 25 26 26 20 11 8 5 8 4 11 4 8 10 7 4 4 5 3 3 2 3 3 3 3 4 6 3 2 3 5 2 3 8 7 6 6 5 7 20 24 27
17 17 19 20 22 22 16 12 10 8 7 6 5 9 9 10 9 5 10 5 1 4 4 3 3 3 5 2 4 6 7 6 4 3 1 8 11 5 8 6 6 23 25 26
17 17 17 17 18 18 16 16 11 9 7 10 13 12 8 7 9 13 15 4 6 7 4 1 3 2 2 2 3 2 3 7 5 9 6 4 18 6 20 9 10 21 23 22
17 17 16 16 16 15 14 16 13 10 18 11 9 10 10 6 8 10 8 6 8 7 6 8 3 2 4 4 6 3 4 7 3 3 5 14 12 24 14 15 13 17 17 15
15 15 14 14 13 12 11 13 12 8 9 6 3 7 7 6 5 8 5 6 13 12 8 5 3 3 9 3 3 3 4 7 4 4 8 7 13 19 21 16 13 16 14 15
14 13 13 13 13 12 11 11 10 7 3 6 6 8 5 4 4 4 5 7 13 9 5 3 3 5 3 1 2 3 9 6 4 6 12 9 8 12 18 19 19 18 20 17
13 13 13 13 13 13 13 5 6 7 8 5 2 4 4 6 5 8 11 10 7 6 5 4 4 4 5 4 4 13 17 20 18 8 10 14 17 14 20 19 17 19 13 13
12 11 11 12 11 11 3 5 9 10 8 4 4 2 3 6 7 6 5 6 3 2 4 4 4 5 5 3 4 7 14 15 16 16 14 9 10 9 18 17 18 17 16 13
12 11 10 11 10 9 8 9 9 9 5 3 4 2 2 5 2 2 3 3 4 2 2 2 2 3 2 3 9 12 12 14 16 17 15 13 11 11 16 17 20 17 12 10
12 11 11 10 8 4 7 8 7 6 3 5 3 4 3 5 3 3 2 1 2 1 1 2 2 1 4 4 8 10 10 8 9 11 7 9 17 22 23 21 14 7 9 4
13 14 4 4 7 11 10 4 2 2 2 3 4 4 2 3 2 3 2 2 1 1 3 1 1 3 10 14 15 15 15 13 12 15 15 19 20 19 19 12 7 4 5 9
12 4 3 11 14 5 3 3 4 3 2 2 2 2 3 2 3 2 2 2 1 2 3 3 2 2 5 11 10 7 5 4 12 15 21 20 20 15 12 4 1 6 9 11
7 8 13 9 2 3 5 2 1 2 2 2 2 3 3 3 2 4 2 2 1 4 5 1 2 2 9 13 16 19 18 18 18 16 17 14 13 9 3 1 6 9 10 12
13 3 4 3 3 3 5 5 1 2 3 2 3 2 2 3 2 5 2 3 3 3 2 2 0 8 11 8 6 14 18 18 18 17 13 9 5 3 6 8 9 10 10 10
4 3 3 2 2 2 1 1 2 3 3 5 6 4 3 3 3 2 3 0 1 3 2 3 1 5 7 6 10 13 12 12 12 9 5 2 3 4 5 6 7 9 9 10
4 3 3 2 4 4 4 7 6 6 6 6 6 5 3 2 2 1 2 1 2 1 1 1 3 5 10 9 7 9 8 7 7 7 7 8 9 9 8 8 7 8 12 15
4 4 4 8 5 3 4 5 7 5 6 6 4 2 2 0 1 2 2 2 1 2 1 8 8 6 10 6 5 3 4 8 10 10 10 11 10 11 12 9 9 12 17 21
3 3 8 6 9 7 5 7 5 8 4 2 2 3 3 2 2 1 2 2 2 10 8 8 5 2 2 5 7 3 5 6 9 11 11 11 11 11 11 14 16 20 22 25
Wind_Direction
186 185 183 181 177 172 167 168 105 171 163 91 90 171 208 304 331 39 60 95 102 157 125 78 111 139 103 343 100 75 39 122 98 188 298 298 184 123 114 108 214 73 144 275
184 183 183 180 177 173 167 146 107 172 177 135 265 261 283 31 39 40 60 94 72 93 126 99 91 95 20 35 77 139 148 36 68 357 350 349 113 69 90 105 87 199 131 263
179 181 182 179 177 174 168 152 99 146 188 143 141 156 249 344 48 73 67 102 77 83 58 31 137 117 27 57 101 102 115 95 150 181 203 182 156 129 116 120 122 192 224 213
172 178 180 179 178 176 171 164 192 166 189 224 148 153 177 151 103 70 52 54 79 131 114 78 107 118 138 56 82 72 89 117 94 65 14 3 216 180 178 190 189 171 245 210
167 177 178 179 180 178 180 157 156 154 159 164 124 133 192 169 155 128 41 116 36 54 144 174 189 140 165 180 40 71 12 151 74 118 5 1 283 233 231 237 218 248 148 234
165 172 176 179 181 179 183 184 182 176 127 112 109 204 180 202 134 45 144 143 100 50 335 118 109 93 115 138 132 108 76 115 86 256 342 335 330 225 193 202 193 155 183 210
158 165 172 178 182 183 186 200 190 157 187 143 173 176 177 172 186 142 95 114 99 134 111 98 87 75 70 66 41 89 118 90 70 201 19 1 244 306 241 185 244 220 108 159
149 157 166 173 180 185 194 212 202 167 126 194 96 117 122 99 86 76 76 57 135 147 111 64 51 355 19 359 32 21 79 118 93 141 201 300 290 192 152 176 252 199 161 149
141 149 160 168 173 179 198 226 192 144 123 288 127 127 151 131 109 33 69 108 144 161 76 73 133 188 199 243 93 54 57 71 111 129 148 217 241 258 148 113 297 191 170 167
141 144 154 161 172 177 196 188 155 127 103 96 150 143 163 135 106 107 133 151 130 91 70 84 139 221 182 174 177 198 46 13 159 147 226 285 240 191 139 102 238 176 188 186
141 143 146 155 167 177 186 175 158 149 108 91 150 143 153 149 145 136 157 84 325 53 72 121 195 150 221 134 184 180 168 151 197 95 92 277 185 139 165 203 190 186 194 196
141 144 145 150 158 167 179 167 159 138 116 118 108 113 136 171 157 141 161 154 158 157 92 137 131 154 163 139 235 119 244 190 185 185 214 260 187 216 212 228 210 195 199 197
139 141 145 148 153 161 170 157 144 135 115 108 112 99 102 127 160 159 142 176 167 166 136 142 154 158 132 171 236 202 244 178 205 94 246 242 237 239 250 232 224 207 198 195
140 137 139 142 145 150 155 158 146 137 122 109 101 113 110 95 144 182 163 176 176 162 149 110 135 154 194 207 214 178 205 152 189 261 275 275 261 242 242 228 216 188 189 193
140 137 137 140 143 143 150 151 143 140 118 130 123 123 87 93 109 160 177 179 177 156 133 107 207 169 122 78 59 256 192 192 169 229 241 226 244 247 229 210 194 193 185 175
144 141 140 139 141 143 141 111 133 139 118 109 113 144 130 155 161 160 157 168 173 175 161 171 191 176 176 156 211 253 241 247 254 259 282 251 258 268 217 200 192 184 184 170
150 148 146 144 149 159 127 130 140 150 142 113 84 30 156 171 164 157 150 166 154 159 152 195 170 156 188 142 225 274 269 272 273 273 267 241 216 200 189 197 179 170 161 169
153 149 143 145 147 138 108 110 140 153 131 113 112 273 138 172 152 137 148 164 166 98 148 177 172 152 148 248 253 294 302 288 280 273 240 254 207 170 179 180 158 148 160 188
150 144 140 137 149 120 125 123 130 159 123 128 95 139 213 168 136 121 130 133 55 325 126 217 153 164 223 255 327 322 326 313 303 224 233 181 171 157 153 158 142 151 178 189
150 142 134 127 136 137 135 123 136 140 75 73 96 130 146 147 109 57 88 44 102 171 249 169 158 259 285 335 323 303 278 288 277 178 145 147 132 125 124 124 135 162 317 288
141 140 84 128 132 123 133 78 59 42 44 41 65 80 129 101 110 154 88 158 144 226 262 188 246 261 344 21 37 49 79 153 145 164 140 130 127 121 109 109 297 267 293 305
130 120 114 125 111 70 83 66 55 60 204 98 108 102 93 116 124 98 144 157 93 243 150 186 244 60 88 85 85 83 94 101 101 105 101 99 90 92 127 255 298 304 310 311
129 93 99 57 14 79 170 163 208 143 161 142 146 79 98 117 128 87 109 176 224 147 194 233 56 132 116 87 83 77 70 65 80 81 88 98 85 352 320 312 308 304 301 300
88 92 86 47 67 45 77 48 87 110 123 129 113 85 75 54 73 101 176 206 38 227 193 241 49 119 106 107 119 112 107 104 103 98 85 42 355 337 321 312 310 315 324 331
86 72 90 86 118 95 118 108 102 103 129 126 107 83 93 38 98 49 92 49 252 155 170 22 61 96 132 145 132 87 73 57 38 24 8 353 339 332 331 328 330 334 332 327
76 74 99 127 96 100 123 121 116 119 141 106 86 104 93 108 126 120 215 177 172 247 166 135 121 96 112 105 134 129 27 2 354 349 342 339 335 332 329 327 320 318 318 320
70 68 119 115 110 121 125 126 122 136 116 100 105 84 186 69 64 65 34 157 141 121 102 117 139 179 190 179 173 259 317 339 347 345 340 334 329 326 321 316 316 316 317 317